EW1296 Weather Reports


time (UTC)temp
C
wind
direction
speed
KPH
gust
KPH
rain 1hr
cm
rain 24hr
cm
rain mn
cm
humidity
%
barometer
mb
20260905184516 27 0 4.8 14.5 0.00 0.00 0.00 47 1010.2
20260905184037 27 315 4.8 14.5 0.00 0.00 0.00 47 1010.3
20260905183536 28 270 4.8 14.5 0.00 0.00 0.00 47 1010.2
20260905183017 28 45 3.2 12.9 0.00 0.00 0.00 48 1010.2
20260905182516 27 293 4.8 14.5 0.00 0.00 0.00 49 1010.3
20260905182018 27 0 4.8 14.5 0.00 0.00 0.00 49 1010.4
20260905181537 27 0 6.4 16.1 0.00 0.00 0.00 49 1010.4
20260905181016 27 338 6.4 12.9 0.00 0.00 0.00 49 1010.4
20260905180516 27 315 6.4 19.3 0.00 0.00 0.00 48 1010.4
20260905180037 27 315 3.2 9.7 0.00 0.00 0.00 48 1010.4
20260905175516 27 315 4.8 16.1 0.00 0.00 0.00 48 1010.4
20260905175016 28 293 8.0 16.1 0.00 0.00 0.00 47 1010.4
20260905174516 27 270 6.4 17.7 0.00 0.00 0.00 48 1010.4
20260905174016 27 338 4.8 12.9 0.00 0.00 0.00 49 1010.5
20260905173517 27 315 9.7 17.7 0.00 0.00 0.00 48 1010.5
20260905173017 27 45 6.4 16.1 0.00 0.00 0.00 49 1010.5
20260905172516 27 0 6.4 17.7 0.00 0.00 0.00 47 1010.6
20260905172036 27 45 6.4 16.1 0.00 0.00 0.00 47 1010.6
20260905171518 27 0 4.8 12.9 0.00 0.00 0.00 47 1010.7
20260905171017 27 0 4.8 14.5 0.00 0.00 0.00 48 1010.7
20260905170516 27 45 6.4 17.7 0.00 0.00 0.00 48 1010.7
20260905170016 27 45 4.8 14.5 0.00 0.00 0.00 50 1010.7
20260905165516 27 0 6.4 16.1 0.00 0.00 0.00 50 1010.6
20260905165037 27 0 6.4 16.1 0.00 0.00 0.00 50 1010.7
20260905164516 27 315 6.4 16.1 0.00 0.00 0.00 51 1010.8
20260905164016 27 0 4.8 11.3 0.00 0.00 0.00 52 1010.9
20260905163516 27 45 8.0 20.9 0.00 0.00 0.00 52 1010.8
20260905163016 27 0 6.4 16.1 0.00 0.00 0.00 51 1010.9
20260905162516 27 0 6.4 12.9 0.00 0.00 0.00 51 1010.8
20260905162016 27 0 6.4 14.5 0.00 0.00 0.00 52 1010.8
20260905161516 27 0 6.4 14.5 0.00 0.00 0.00 53 1010.7
20260905161017 27 315 6.4 14.5 0.00 0.00 0.00 53 1010.8
20260905160516 27 293 4.8 19.3 0.00 0.00 0.00 50 1010.7
20260905160016 27 338 4.8 11.3 0.00 0.00 0.00 51 1010.7
20260905155518 27 293 4.8 14.5 0.00 0.00 0.00 51 1010.7
20260905155017 27 315 4.8 14.5 0.00 0.00 0.00 51 1010.6
20260905154516 27 0 6.4 14.5 0.00 0.00 0.00 51 1010.6
20260905154018 27 338 6.4 12.9 0.00 0.00 0.00 51 1010.6
20260905153517 26 45 6.4 16.1 0.00 0.00 0.00 53 1010.6
20260905153017 26 338 4.8 12.9 0.00 0.00 0.00 53 1010.7
20260905152516 26 0 4.8 14.5 0.00 0.00 0.00 52 1010.7
20260905152017 27 315 4.8 14.5 0.00 0.00 0.00 53 1010.7
20260905151516 26 315 4.8 14.5 0.00 0.00 0.00 53 1010.8
20260905151016 26 45 4.8 8.0 0.00 0.00 0.00 54 1010.7
20260905150516 26 0 6.4 17.7 0.00 0.00 0.00 55 1010.7
20260905150036 26 338 6.4 17.7 0.00 0.00 0.00 55 1010.7
20260905145516 26 23 6.4 16.1 0.00 0.00 0.00 54 1010.8
20260905145016 26 0 6.4 19.3 0.00 0.00 0.00 54 1010.7
20260905144516 26 338 6.4 16.1 0.00 0.00 0.00 55 1010.7
20260905144016 26 338 4.8 17.7 0.00 0.00 0.00 57 1010.6
20260905143516 26 315 4.8 11.3 0.00 0.00 0.00 58 1010.6
20260905143017 25 45 4.8 12.9 0.00 0.00 0.00 58 1010.6
20260905142516 25 270 3.2 9.7 0.00 0.00 0.00 59 1010.6
20260905142016 25 338 3.2 8.0 0.00 0.00 0.00 61 1010.5
20260905141517 25 23 4.8 11.3 0.00 0.00 0.00 62 1010.7
20260905141037 25 338 4.8 14.5 0.00 0.00 0.00 62 1010.6
20260905140517 25 338 4.8 9.7 0.00 0.00 0.00 63 1010.5
20260905140016 24 338 4.8 11.3 0.00 0.00 0.00 63 1010.5
20260905135516 24 315 6.4 14.5 0.00 0.00 0.00 63 1010.6
20260905135017 24 315 6.4 16.1 0.00 0.00 0.00 64 1010.5
20260905134517 24 338 4.8 16.1 0.00 0.00 0.00 63 1010.5
20260905134016 24 293 4.8 12.9 0.00 0.00 0.00 64 1010.5
20260905133516 24 315 6.4 14.5 0.00 0.00 0.00 64 1010.5
20260905133016 24 315 6.4 14.5 0.00 0.00 0.00 63 1010.5
20260905132537 24 293 6.4 12.9 0.00 0.00 0.00 64 1010.6
20260905132056 24 315 4.8 12.9 0.00 0.00 0.00 64 1010.6
20260905131538 24 0 6.4 12.9 0.00 0.00 0.00 64 1010.7
20260905131016 23 315 4.8 11.3 0.00 0.00 0.00 64 1010.7
20260905130515 23 315 4.8 11.3 0.00 0.00 0.00 64 1010.8
20260905130036 23 338 3.2 9.7 0.00 0.00 0.00 65 1010.9
20260905125516 23 0 3.2 6.4 0.00 0.00 0.00 65 1010.9
20260905125017 23 293 6.4 14.5 0.00 0.00 0.00 65 1011.0
20260905124517 23 315 6.4 12.9 0.00 0.00 0.00 65 1011.0
20260905124017 23 0 3.2 12.9 0.00 0.00 0.00 66 1011.0
20260905123536 23 315 3.2 12.9 0.00 0.00 0.00 67 1011.0
20260905123016 23 315 4.8 12.9 0.00 0.00 0.00 67 1011.2
20260905122536 23 315 6.4 14.5 0.00 0.00 0.00 67 1011.2
20260905122037 23 315 6.4 16.1 0.00 0.00 0.00 67 1011.3
20260905121515 23 315 4.8 12.9 0.00 0.00 0.00 67 1011.2
20260905121016 22 315 4.8 9.7 0.00 0.00 0.00 68 1011.0
20260905120515 22 315 6.4 12.9 0.00 0.00 0.00 68 1011.2
20260905120036 22 315 4.8 12.9 0.00 0.00 0.00 68 1011.1
20260905115516 22 315 3.2 9.7 0.00 0.00 0.00 68 1011.1
20260905115017 22 315 4.8 9.7 0.00 0.00 0.00 68 1011.1
20260905114517 22 338 3.2 8.0 0.00 0.00 0.00 68 1011.0
20260905114017 22 338 3.2 8.0 0.00 0.00 0.00 68 1010.9
20260905113516 22 315 4.8 12.9 0.00 0.00 0.00 68 1010.9
20260905113016 22 315 4.8 12.9 0.00 0.00 0.00 68 1010.9
20260905112515 22 338 3.2 11.3 0.00 0.00 0.00 68 1010.8
20260905112015 22 338 1.6 6.4 0.00 0.00 0.00 68 1010.7
20260905111516 22 23 1.6 8.0 0.00 0.00 0.00 68 1010.7
20260905111015 22 0 4.8 12.9 0.00 0.00 0.00 68 1010.7
20260905110517 22 338 3.2 9.7 0.00 0.00 0.00 68 1010.5
20260905110036 22 293 1.6 6.4 0.00 0.00 0.00 68 1010.4
20260905105515 22 0 3.2 8.0 0.00 0.00 0.00 67 1010.4
20260905105015 22 0 3.2 6.4 0.00 0.00 0.00 67 1010.3
20260905104517 22 315 4.8 9.7 0.00 0.00 0.00 67 1010.2
20260905104057 22 315 3.2 6.4 0.00 0.00 0.00 67 1010.3
20260905103517 22 338 1.6 4.8 0.00 0.00 0.00 66 1010.3
20260905103016 22 338 3.2 8.0 0.00 0.00 0.00 66 1010.2
20260905102516 22 338 3.2 12.9 0.00 0.00 0.00 66 1010.1
20260905102035 22 0 3.2 6.4 0.00 0.00 0.00 66 1010.0
20260905101516 22 0 1.6 6.4 0.00 0.00 0.00 66 1010.1
20260905101015 22 0 1.6 6.4 0.00 0.00 0.00 66 1010.0
20260905100515 22 0 3.2 12.9 0.00 0.00 0.00 65 1010.0
20260905100015 22 338 3.2 9.7 0.00 0.00 0.00 65 1010.1
20260905095516 22 0 4.8 12.9 0.00 0.00 0.00 65 1010.1
20260905095015 23 338 3.2 8.0 0.00 0.00 0.00 64 1010.1
20260905094515 23 338 3.2 6.4 0.00 0.00 0.00 65 1010.1
20260905094016 23 338 3.2 8.0 0.00 0.00 0.00 65 1010.0
20260905093515 23 0 4.8 12.9 0.00 0.00 0.00 65 1009.9
20260905093016 23 315 3.2 6.4 0.00 0.00 0.00 65 1009.9
20260905092516 23 338 3.2 8.0 0.00 0.00 0.00 64 1009.9
20260905092015 23 338 3.2 6.4 0.00 0.00 0.00 64 1009.8
20260905091517 23 338 3.2 11.3 0.00 0.00 0.00 63 1009.8
20260905091016 23 338 3.2 8.0 0.00 0.00 0.00 63 1009.9
20260905090515 23 0 3.2 6.4 0.00 0.00 0.00 63 1009.8
20260905090015 23 315 4.8 12.9 0.00 0.00 0.00 63 1009.8
20260905085515 23 0 4.8 12.9 0.00 0.00 0.00 63 1009.8
20260905085015 23 338 4.8 9.7 0.00 0.00 0.00 62 1009.8
20260905084535 23 338 3.2 9.7 0.00 0.00 0.00 62 1009.8
20260905084015 23 338 4.8 12.9 0.00 0.00 0.00 62 1009.8
20260905083515 23 0 4.8 14.5 0.00 0.00 0.00 62 1009.9
20260905083015 23 338 3.2 6.4 0.00 0.00 0.00 61 1009.9
20260905082515 23 338 3.2 11.3 0.00 0.00 0.00 61 1009.8
20260905082016 23 338 4.8 11.3 0.00 0.00 0.00 60 1009.8
20260905081515 23 338 4.8 11.3 0.00 0.00 0.00 60 1009.8
20260905081015 23 338 6.4 12.9 0.00 0.00 0.00 60 1009.8
20260905080517 23 45 4.8 16.1 0.00 0.00 0.00 59 1009.8
20260905080017 23 338 3.2 8.0 0.00 0.00 0.00 59 1009.9
20260905075517 24 315 4.8 12.9 0.00 0.00 0.00 59 1009.8
20260905075017 24 338 4.8 14.5 0.00 0.00 0.00 59 1009.9
20260905074517 24 0 4.8 12.9 0.00 0.00 0.00 59 1009.9
20260905074019 24 338 3.2 8.0 0.00 0.00 0.00 59 1009.9
20260905073517 24 315 3.2 14.5 0.00 0.00 0.00 59 1009.9
20260905073017 24 315 3.2 8.0 0.00 0.00 0.00 59 1009.8
20260905072517 24 338 4.8 9.7 0.00 0.00 0.00 59 1009.8
20260905072017 24 338 4.8 12.9 0.00 0.00 0.00 59 1009.9
20260905071537 24 0 4.8 14.5 0.00 0.00 0.00 59 1009.9
20260905071018 24 0 3.2 6.4 0.00 0.00 0.00 59 1010.0
20260905070518 24 338 3.2 9.7 0.00 0.00 0.00 59 1010.0
20260905070018 24 23 4.8 14.5 0.00 0.00 0.00 59 1010.0
20260905065517 24 338 3.2 9.7 0.00 0.00 0.00 59 1009.9
20260905065018 24 45 4.8 12.9 0.00 0.00 0.00 59 1009.9
20260905064518 24 0 3.2 11.3 0.00 0.00 0.00 60 1009.8
20260905064018 24 0 3.2 9.7 0.00 0.00 0.00 60 1009.9
20260905063517 24 45 4.8 8.0 0.00 0.00 0.00 61 1010.0
20260905063017 24 0 3.2 12.9 0.00 0.00 0.00 62 1010.0
20260905062517 24 68 1.6 6.4 0.00 0.00 0.00 63 1010.1
20260905062017 25 338 1.6 6.4 0.00 0.00 0.00 63 1010.1
20260905061517 25 338 1.6 4.8 0.00 0.00 0.00 63 1010.1
20260905061017 25 338 1.6 3.2 0.00 0.00 0.00 63 1010.2
20260905060519 25 338 1.6 4.8 0.00 0.00 0.00 63 1010.2
20260905060017 25 338 3.2 9.7 0.00 0.00 0.00 62 1010.3
20260905055517 25 0 1.6 4.8 0.00 0.00 0.00 62 1010.4
20260905055017 25 0 3.2 9.7 0.00 0.00 0.00 61 1010.3
20260905054518 25 0 1.6 8.0 0.00 0.00 0.00 61 1010.5
20260905054038 25 293 1.6 8.0 0.00 0.00 0.00 61 1010.6
20260905053537 25 0 3.2 12.9 0.00 0.00 0.00 61 1010.6
20260905053017 25 338 1.6 4.8 0.00 0.00 0.00 61 1010.6
20260905052518 25 338 3.2 11.3 0.00 0.00 0.00 61 1010.7
20260905052017 25 338 4.8 12.9 0.00 0.00 0.00 61 1010.7
20260905051517 25 338 3.2 14.5 0.00 0.00 0.00 61 1010.9
20260905051018 25 0 4.8 16.1 0.00 0.00 0.00 61 1010.8
20260905050517 25 0 4.8 14.5 0.00 0.00 0.00 61 1010.9
20260905050017 25 0 3.2 8.0 0.00 0.00 0.00 61 1010.8
20260905045517 25 0 4.8 14.5 0.00 0.00 0.00 61 1010.8
20260905045018 25 45 3.2 14.5 0.00 0.00 0.00 61 1010.8
20260905044537 25 0 3.2 12.9 0.00 0.00 0.00 61 1010.9
20260905044017 25 0 4.8 12.9 0.00 0.00 0.00 61 1010.9
20260905043517 25 23 4.8 12.9 0.00 0.00 0.00 61 1010.9
20260905043017 25 45 3.2 9.7 0.00 0.00 0.00 62 1010.9
20260905042517 25 338 4.8 16.1 0.00 0.00 0.00 63 1010.9
20260905042017 25 338 3.2 12.9 0.00 0.00 0.00 63 1010.9
20260905041517 25 293 1.6 4.8 0.00 0.00 0.00 63 1011.0
20260905041017 25 23 1.6 4.8 0.00 0.00 0.00 63 1010.9
20260905040517 25 23 1.6 8.0 0.00 0.00 0.00 63 1010.9
20260905040017 25 0 1.6 4.8 0.00 0.00 0.00 63 1010.9
20260905035516 25 0 3.2 6.4 0.00 0.00 0.00 62 1011.0
20260905035016 25 0 3.2 6.4 0.00 0.00 0.00 62 1010.9
20260905034535 25 315 3.2 8.0 0.00 0.00 0.00 62 1010.9
20260905034015 25 315 4.8 14.5 0.00 0.00 0.00 62 1010.8
20260905033516 25 23 4.8 14.5 0.00 0.00 0.00 61 1010.8
20260905033037 25 23 1.6 6.4 0.00 0.00 0.00 62 1010.7
20260905032515 25 293 3.2 9.7 0.00 0.00 0.00 62 1010.8
20260905032015 26 0 4.8 14.5 0.00 0.00 0.00 62 1010.7
20260905031515 26 338 3.2 8.0 0.00 0.00 0.00 62 1010.7
20260905031015 26 338 4.8 12.9 0.00 0.00 0.00 61 1010.8
20260905030558 26 338 4.8 14.5 0.00 0.00 0.00 61 1010.8
20260905030017 26 315 4.8 11.3 0.00 0.00 0.00 60 1010.9
20260905025515 26 0 3.2 11.3 0.00 0.00 0.00 60 1010.8
20260905025015 26 0 4.8 12.9 0.00 0.00 0.00 60 1010.8
20260905024515 26 0 3.2 9.7 0.00 0.00 0.00 60 1010.8
20260905024015 26 0 3.2 11.3 0.00 0.00 0.00 60 1010.7
20260905023515 26 293 4.8 12.9 0.00 0.00 0.00 60 1010.7
20260905023015 26 338 6.4 12.9 0.00 0.00 0.00 60 1010.7
20260905022515 26 315 6.4 16.1 0.00 0.00 0.00 60 1010.8
20260905022017 26 315 4.8 12.9 0.00 0.00 0.00 60 1010.9
20260905021518 26 315 4.8 14.5 0.00 0.00 0.00 60 1010.9
20260905021039 26 293 3.2 11.3 0.00 0.00 0.00 60 1010.9
20260905020517 26 338 4.8 11.3 0.00 0.00 0.00 60 1010.8
20260905020017 26 315 4.8 11.3 0.00 0.00 0.00 60 1010.9
20260905015516 26 315 4.8 11.3 0.00 0.00 0.00 60 1010.9
20260905015018 26 315 3.2 9.7 0.00 0.00 0.00 60 1010.9
20260905014537 26 338 3.2 9.7 0.00 0.00 0.00 59 1010.9
20260905014018 26 315 3.2 9.7 0.00 0.00 0.00 59 1010.8
20260905013518 26 315 4.8 8.0 0.00 0.00 0.00 59 1010.8
20260905013017 27 315 3.2 8.0 0.00 0.00 0.00 60 1011.0
20260905012540 27 315 4.8 11.3 0.00 0.00 0.00 59 1011.0
20260905012039 27 315 4.8 12.9 0.00 0.00 0.00 58 1010.9
20260905011517 27 315 3.2 6.4 0.00 0.00 0.00 58 1010.9
20260905011037 27 0 3.2 9.7 0.00 0.00 0.00 57 1010.8
20260905010538 27 338 3.2 6.4 0.00 0.00 0.00 57 1010.8
20260905010017 27 338 1.6 6.4 0.00 0.00 0.00 57 1010.7
20260905005537 27 338 1.6 8.0 0.00 0.00 0.00 57 1010.6
20260905005015 27 315 3.2 6.4 0.00 0.00 0.00 57 1010.7
20260905004517 27 338 3.2 9.7 0.00 0.00 0.00 56 1010.7
20260905004017 27 338 3.2 8.0 0.00 0.00 0.00 56 1010.6
20260905003518 27 315 4.8 12.9 0.00 0.00 0.00 56 1010.6
20260905003017 27 315 3.2 8.0 0.00 0.00 0.00 56 1010.5
20260905002517 27 315 3.2 6.4 0.00 0.00 0.00 56 1010.5
20260905002017 27 293 3.2 8.0 0.00 0.00 0.00 56 1010.6
20260905001518 27 293 3.2 8.0 0.00 0.00 0.00 56 1010.6
20260905001017 27 293 3.2 9.7 0.00 0.00 0.00 55 1010.6
20260905000517 27 0 3.2 9.7 0.00 0.00 0.00 55 1010.6
20260905000018 27 338 3.2 8.0 0.00 0.00 0.00 55 1010.6
20260904235517 27 315 4.8 8.0 0.00 0.00 0.00 55 1010.4
20260904235017 27 315 4.8 12.9 0.00 0.00 0.00 55 1010.4
20260904234517 27 0 4.8 12.9 0.00 0.00 0.00 55 1010.4
20260904234017 28 315 4.8 12.9 0.00 0.00 0.00 55 1010.3
20260904233540 28 315 6.4 19.3 0.00 0.00 0.00 54 1010.5
20260904233038 28 315 6.4 14.5 0.00 0.00 0.00 54 1010.4
20260904232539 28 315 8.0 16.1 0.00 0.00 0.00 54 1010.4
20260904232017 28 315 4.8 9.7 0.00 0.00 0.00 54 1010.4
20260904231517 28 315 4.8 11.3 0.00 0.00 0.00 54 1010.4
20260904231017 28 315 3.2 9.7 0.00 0.00 0.00 54 1010.4
20260904230517 28 0 4.8 12.9 0.00 0.00 0.00 53 1010.3
20260904230017 28 293 4.8 14.5 0.00 0.00 0.00 53 1010.4
20260904225517 28 0 4.8 14.5 0.00 0.00 0.00 53 1010.4
20260904225018 29 293 3.2 8.0 0.00 0.00 0.00 51 1010.4
20260904224517 29 338 3.2 8.0 0.00 0.00 0.00 52 1010.5
20260904224017 29 315 4.8 11.3 0.00 0.00 0.00 51 1010.5
20260904223537 29 338 6.4 16.1 0.00 0.00 0.00 51 1010.5
20260904223017 29 315 6.4 12.9 0.00 0.00 0.00 51 1010.5
20260904222517 30 315 6.4 12.9 0.00 0.00 0.00 51 1010.4
20260904222037 30 315 6.4 16.1 0.00 0.00 0.00 50 1010.4
20260904221518 30 293 6.4 14.5 0.00 0.00 0.00 49 1010.4
20260904221018 30 315 6.4 16.1 0.00 0.00 0.00 49 1010.4
20260904220537 30 338 6.4 16.1 0.00 0.00 0.00 48 1010.4
20260904220017 30 0 6.4 16.1 0.00 0.00 0.00 48 1010.4
20260904215518 30 338 6.4 16.1 0.00 0.00 0.00 47 1010.3
20260904215017 30 315 4.8 14.5 0.00 0.00 0.00 47 1010.3
20260904214517 30 338 6.4 12.9 0.00 0.00 0.00 48 1010.3
20260904214017 30 315 6.4 16.1 0.00 0.00 0.00 47 1010.2
20260904213517 30 315 8.0 17.7 0.00 0.00 0.00 47 1010.2
20260904213037 31 315 6.4 14.5 0.00 0.00 0.00 46 1010.1
20260904212517 30 315 6.4 12.9 0.00 0.00 0.00 46 1010.0
20260904212017 31 248 8.0 25.7 0.00 0.00 0.00 46 1010.0
20260904211517 30 315 4.8 11.3 0.00 0.00 0.00 47 1010.0
20260904211017 30 315 9.7 19.3 0.00 0.00 0.00 46 1010.1
20260904210517 31 315 8.0 16.1 0.00 0.00 0.00 47 1010.1
20260904210017 31 338 8.0 17.7 0.00 0.00 0.00 47 1010.2
20260904205517 31 315 4.8 11.3 0.00 0.00 0.00 48 1010.2
20260904205018 31 315 8.0 20.9 0.00 0.00 0.00 47 1010.2
20260904204517 31 315 9.7 19.3 0.00 0.00 0.00 47 1010.2
20260904204017 31 248 9.7 22.5 0.00 0.00 0.00 47 1010.4
20260904203537 31 338 4.8 9.7 0.00 0.00 0.00 47 1010.4
20260904203037 31 338 6.4 16.1 0.00 0.00 0.00 47 1010.4
20260904202518 31 315 6.4 19.3 0.00 0.00 0.00 47 1010.4
20260904202017 31 293 4.8 12.9 0.00 0.00 0.00 47 1010.4
20260904201517 31 338 9.7 19.3 0.00 0.00 0.00 47 1010.3
20260904201017 31 315 8.0 19.3 0.00 0.00 0.00 48 1010.4
20260904200518 31 315 8.0 17.7 0.00 0.00 0.00 47 1010.6
20260904200036 31 315 9.7 20.9 0.00 0.00 0.00 47 1010.7
20260904195517 31 315 6.4 20.9 0.00 0.00 0.00 47 1010.8
20260904195017 31 270 4.8 12.9 0.00 0.00 0.00 47 1010.8
20260904194557 31 315 6.4 16.1 0.00 0.00 0.00 47 1010.9
20260904194018 31 315 8.0 17.7 0.00 0.00 0.00 47 1010.9
20260904193517 31 315 8.0 17.7 0.00 0.00 0.00 48 1010.9
20260904193017 31 338 8.0 16.1 0.00 0.00 0.00 47 1010.9
20260904192517 31 293 6.4 17.7 0.00 0.00 0.00 47 1011.0
20260904192017 31 315 9.7 20.9 0.00 0.00 0.00 47 1011.0
20260904191640 30 0 8.0 17.7 0.00 0.00 0.00 47 1011.0
20260904191017 31 0 9.7 20.9 0.00 0.00 0.00 46 1011.1
20260904190517 31 338 6.4 17.7 0.00 0.00 0.00 47 1011.1
20260904190019 31 315 8.0 20.9 0.00 0.00 0.00 46 1011.2
20260904185518 31 293 8.0 17.7 0.00 0.00 0.00 47 1011.3
20260904185017 31 315 11.3 19.3 0.00 0.00 0.00 46 1011.2